Zurück zum Katalog

GALILEO 32 (137)

AktivNavigationMEO
NORAD 61182·PAYLOAD·🇪🇺 EU

Gestartet Sep 17, 2024 von Cape Canaveral Space Force Station

Loading…

Nächste Überflüge (nächste 24 Stunden)

TLE

AktuellSource: CelesTrak SupGP

Epoche: Sep 14, 2026, 23:59 UTC

1 61182C 24167A   26257.99979167  .00000000  00000+0  00000+0 0  2572
2 61182  55.1651 218.8512 0005487 236.0917 132.6890  1.70473714    16

Verfolge GALILEO 32 (137) in Echtzeit mit AllMySat

Download on the App Store